Weather History for Parkersburg, WV

Change the Weather History Date:

Sunday, December 22, 2013

  Actual Average Record
Temperature  
Mean Temperature 62 °F 34 °F  
Max Temperature 70 °F 42 °F 70 °F (1967)
Min Temperature 54 °F 25 °F -13 °F (1989)
Degree Days  
Heating Degree Days 3 32  
Month to date heating degree days 570 635  
Cooling Degree Days 0 0  
Month to date cooling degree days 0 0  
Year to date cooling degree days 955 955  
Growing Degree Days 12 (Base 50)    
Moisture  
Dew Point 54 °F    
Average Humidity 80    
Maximum Humidity 93    
Minimum Humidity 67    
Precipitation  
Precipitation 0.41 in 0.09 in 0.96 in (2006)
Month to date precipitation 3.64 2.24  
Year to date precipitation 43.46 40.33  
Sea Level Pressure  
Sea Level Pressure 29.84 in    
Wind  
Wind Speed 10 mph (SW)    
Max Wind Speed 40 mph    
Max Gust Speed 60 mph    
Visibility 9 miles    
Events Rain    
T = Trace of Precipitation, MM = Missing Value Source: NWS Daily Summary

Daily Weather History Graph

Daily Weather History Graph

Search for Another Location

Airport:

Trip Planner

Search our weather history database for the weather conditions in past years. The results will help you decide how hot, cold, wet, or windy it might be!

Date:

Astronomy

Dec. 22, 2013 Rise Set
Actual Time 7:42 AM EST 5:06 PM EST
Civil Twilight 7:12 AM EST 5:36 PM EST
Nautical Twilight 6:38 AM EST 6:10 PM EST
Astronomical Twilight 6:06 AM EST 6:43 PM EST
Moon 10:16 PM EST (12/22) 10:39 AM EST (12/22)
Length of Visible Light 10h 24m
Length of Day
9h 23m
Waning Gibbous, 77% of the Moon is Illuminated
Dec 22
Waning Gibbous
Dec 25
Last Quarter
Jan 1
New
Jan 7
First Quarter
Jan 15
Full

Hourly Weather History & Observations

Time (EST) Temp. Dew Point Humidity Pressure Visibility Wind Dir Wind Speed Gust Speed Precip Events Conditions
12:53 AM 66.9 °F 57.0 °F 70% 29.62 in 10.0 mi SSE 13.8 mph 19.6 mph N/A   Clear
1:53 AM 69.1 °F 57.0 °F 65% 29.61 in 10.0 mi South 13.8 mph 21.9 mph 0.00 in Rain Light Rain
2:10 AM 66.2 °F 59.0 °F 78% 29.73 in 1.2 mi West 33.4 mph 59.8 mph 0.11 in Rain Light Rain
2:15 AM 62.6 °F 60.8 °F 94% 29.75 in 0.8 mi West 19.6 mph 59.8 mph 0.17 in Rain Heavy Rain
2:21 AM 62.6 °F 60.8 °F 94% 29.75 in 2.5 mi West 10.4 mph 28.8 mph 0.19 in Rain Rain
2:28 AM 62.6 °F 60.8 °F 94% 29.74 in 6.0 mi West 10.4 mph 24.2 mph 0.20 in Rain Light Rain
2:53 AM 62.1 °F 59.0 °F 90% 29.77 in 10.0 mi West 12.7 mph 21.9 mph 0.20 in Rain Light Rain
3:53 AM 61.0 °F 57.9 °F 90% 29.81 in 10.0 mi SSW 6.9 mph - 0.01 in Rain Light Rain
4:53 AM 61.0 °F 57.9 °F 90% 29.79 in 10.0 mi South 9.2 mph - 0.02 in Rain Light Rain
5:53 AM 60.1 °F 57.9 °F 93% 29.82 in 10.0 mi South 12.7 mph - 0.02 in Rain Light Rain
6:36 AM 60.8 °F 57.2 °F 88% 29.87 in 6.0 mi South 11.5 mph 20.7 mph 0.06 in Rain Rain
6:53 AM 59.0 °F 57.0 °F 93% 29.84 in 8.0 mi SSE 11.5 mph - 0.08 in Rain Light Rain
7:53 AM 59.0 °F 55.9 °F 90% 29.80 in 8.0 mi SSE 15.0 mph 25.3 mph 0.06 in Rain Light Rain
8:53 AM 60.1 °F 55.0 °F 83% 29.76 in 10.0 mi SSE 15.0 mph 26.5 mph 0.02 in Rain Light Rain
9:53 AM 60.1 °F 54.0 °F 80% 29.83 in 10.0 mi SSW 15.0 mph 26.5 mph 0.00 in   Partly Cloudy
10:53 AM 60.1 °F 54.0 °F 80% 29.84 in 10.0 mi SSW 16.1 mph 27.6 mph N/A   Overcast
11:53 AM 61.0 °F 53.1 °F 75% 29.84 in 10.0 mi SSW 15.0 mph 25.3 mph N/A   Overcast
12:53 PM 61.0 °F 53.1 °F 75% 29.86 in 10.0 mi SSW 12.7 mph 21.9 mph N/A   Overcast
1:00 PM 60.8 °F 53.6 °F 77% 29.86 in 10.0 mi SSW 12.7 mph 24.2 mph N/A   Overcast
1:53 PM 61.0 °F 53.1 °F 75% 29.86 in 10.0 mi SSW 15.0 mph 23.0 mph N/A   Overcast
2:02 PM 60.8 °F 53.6 °F 77% 29.87 in 10.0 mi SW 18.4 mph 28.8 mph N/A   Mostly Cloudy
2:53 PM 59.0 °F 51.1 °F 75% 29.88 in 10.0 mi WSW 11.5 mph 18.4 mph 0.00 in   Mostly Cloudy
3:53 PM 59.0 °F 50.0 °F 72% 29.88 in 10.0 mi WSW 5.8 mph - N/A   Partly Cloudy
4:53 PM 59.0 °F 50.0 °F 72% 29.92 in 10.0 mi WSW 6.9 mph - N/A   Overcast
5:53 PM 57.9 °F 48.0 °F 70% 29.93 in 10.0 mi SW 6.9 mph - N/A   Mostly Cloudy
6:53 PM 57.9 °F 46.9 °F 67% 29.94 in 10.0 mi SW 5.8 mph - N/A   Mostly Cloudy
7:53 PM 57.0 °F 46.9 °F 69% 29.95 in 10.0 mi SW 4.6 mph - N/A   Overcast
8:53 PM 57.0 °F 46.9 °F 69% 29.97 in 10.0 mi WSW 4.6 mph - N/A   Overcast
9:53 PM 55.9 °F 46.0 °F 69% 29.98 in 10.0 mi WSW 3.5 mph - N/A   Overcast
10:53 PM 55.0 °F 46.0 °F 72% 29.99 in 10.0 mi SW 4.6 mph - N/A   Overcast
11:53 PM 54.0 °F 45.0 °F 72% 30.02 in 10.0 mi West 5.8 mph - 0.00 in Rain Light Rain